Probability
0 0 0 0 0 0 0 0 0 0 0 0 0 0 0 0 0 0 0 0 0 0 0 0 0 0 0 0 0 0 0 0 0 0 0 0 0 0
0 0 0 0 0 0 0 0 0 0 0 0 0 0 0 0 0 0 0 0 0 0 0 0 0 0 0 0 0 0 0 0 0 0 0 0 0 0
0 0 0 0 0 0 0 0 0 0 0 0 0 0 0 0 0 0 0 0 0 0 0 0 0 0 0 0 0 0 0 0 0 0 0 0 0 0
0 0 0 0 0 0 0 0 0 0 0 0 0 0 0 0 0 0 0 0 0 0 0 0 0 0 0 0 0 0 0 0 0 0 0 0 0 0
0 0 0 0 0 0 0 0 0 0 0 0 0 0 0 0 0 0 0 0 0 0 0 0 0 0 0 0 0 0 0 0 0 0 0 0 0 0
0 0 0 0 0 0 0 0 0 0 0 0 0 0 0 0 0 0 0 0 0 0 0 0 0 0 0 0 0 0 0 0 0 0 0 0 0 0
0 0 0 0 0 0 0 0 0 0 0 0 0 0 0 0 0 0 0 0 0 0 0 0 0 0 0 0 0 0 0 0 0 0 0 0 0 0
0 0 0 0 0 0 0 0 0 0 0 0 0 0 0 0 0 0 0 0 0 0 0 0 0 0 0 0 0 0 0 0 0 0 0 0 0 0
0 0 0 0 0 0 0 0 0 0 0 0 0 0 0 0 0 0 0 0 0 0 0 0 0 0 0 0 0 0 0 0 0 0 0 0 0 0
0 0 0 0 0 0 0 0 0 0 0 0 0 0 0 0 0 0 0 0 0 0 0 0 0 0 0 0 0 0 0 0 0 0 0 0 0 0
0 0 0 0 0 0 0 0 0 0 0 0 0 0 0 0 0 0 0 0 0 0 0 0 0 0 0 0 0 0 0 0 0 0 0 0 0 0
0 0 0 0 0 0 0 0 0 0 0 0 0 0 0 0 0 0 0 0 0 0 0 0 0 0 0 0 0 0 0 0 0 0 0 0 0 0
0 0 0 0 0 0 0 0 0 0 0 0 0 0 0 0 0 0 0 0 0 0 0 0 0 0 0 0 0 0 0 0 0 0 0 0 0 0
0 0 0 0 0 0 0 0 0 0 0 0 0 0 0 0 0 0 0 0 0 0 0 0 0 0 0 0 0 0 0 0 0 0 0 0 0 0
0 0 0 0 0 0 0 0 0 0 0 0 0 0 0 0 0 0 0 0 0 0 0 0 0 0 0 0 0 0 0 0 0 0 0 0 0 0
0 0 0 0 0 0 0 0 0 0 0 0 0 0 0 0 0 0 0 0 0 0 0 0 0 0 0 0 0 0 0 0 0 0 0 0 0 0
0 0 0 0 0 0 0 0 0 0 0 0 0 0 0 0 0 0 0 0 0 0 0 0 0 0 0 0 0 0 0 0 0 0 0 0 0 0
0 0 0 0 0 0 0 0 0 0 0 0 0 0 0 0 0 0 0 0 0 0 0 0 0 0 0 0 0 0 0 0 0 0 0 0 0 0
0 0 0 0 0 0 0 0 0 0 0 0 0 0 0 0 0 0 0 0 0 0 0 0 0 0 0 0 0 0 0 0 0 0 0 0 0 0
0 0 0 0 0 0 0 0 0 0 0 0 0 0 0 0 0 0 0 0 0 0 0 0 0 0 0 0 0 0 0 0 0 0 0 0 0 0
0 0 0 0 0 0 0 0 0 0 0 0 0 0 0 0 0 0 0 0 0 0 0 0 0 0 0 0 0 0 0 0 0 0 0 0 0 0
0 0 0 0 0 0 0 0 0 0 0 0 0 0 0 0 0 0 0 0 0 0 0 0 0 0 0 0 0 0 0 0 0 0 0 0 0 0
0 0 0 0 0 0 0 0 0 0 0 0 0 0 0 0 0 0 0 0 0 0 0 0 0 0 0 0 0 0 0 0 0 0 0 0 0 0
Wind_Speed
16 16 15 12 11 11 9 9 10 13 13 8 7 7 9 8 16 11 9 20 25 24 24 25 25 26 27 27 27 27 27 27 27 28 28 29 29 30
13 14 16 12 11 10 11 10 11 13 16 5 7 6 8 9 16 11 11 22 25 25 25 25 26 26 27 27 27 28 28 28 29 29 29 30 30 30
14 15 17 14 12 10 10 11 12 12 17 10 6 7 8 9 9 7 7 9 10 24 26 27 27 27 27 27 28 28 29 29 29 30 30 31 31 31
16 16 17 13 15 12 11 13 12 12 15 16 7 7 10 9 8 9 9 10 9 20 26 27 27 27 27 28 28 29 29 29 29 30 31 31 32 33
15 16 16 14 16 13 13 13 12 12 12 13 11 7 8 7 8 9 11 9 10 15 22 25 26 27 28 28 28 28 29 29 30 30 31 32 33 33
14 15 15 15 16 15 13 14 12 12 11 12 11 8 8 6 6 9 10 8 10 11 15 17 21 26 27 28 28 28 29 29 30 31 32 32 33 34
13 13 14 18 21 17 13 10 10 10 10 11 12 9 9 8 9 8 10 8 9 9 9 10 11 10 13 21 26 27 29 30 31 32 32 33 33 34
13 12 13 18 22 28 29 26 20 15 14 13 12 13 10 10 9 9 9 9 9 6 9 10 9 10 9 9 20 28 29 30 31 32 33 33 34 34
12 11 10 12 18 13 20 27 26 29 26 17 16 15 12 11 11 12 12 11 12 7 6 10 8 11 9 12 25 28 29 31 32 32 33 34 34 35
10 11 12 12 12 13 11 12 13 13 17 14 14 14 12 10 11 13 12 12 11 9 9 12 10 11 10 9 21 28 30 31 32 33 33 34 34 35
9 10 11 11 18 23 14 12 12 12 19 25 23 19 22 24 19 11 11 10 11 9 8 8 9 10 10 10 14 26 30 31 31 32 33 33 34 34
7 8 16 16 19 22 13 11 13 11 9 10 14 17 15 16 23 14 9 10 9 8 6 6 6 5 8 7 8 9 13 22 29 31 32 33 33 22
6 6 8 18 20 21 19 11 15 12 8 9 9 9 8 8 9 9 8 9 10 9 4 4 6 7 10 11 8 9 10 11 13 18 25 31 32 27
7 6 8 17 19 20 16 16 21 18 8 9 9 9 8 8 8 8 9 9 10 11 7 6 7 9 12 15 14 8 7 9 11 14 13 21 26 31
6 12 14 17 17 13 16 19 16 9 8 8 8 8 7 7 6 5 6 7 8 9 9 10 10 10 11 14 16 14 13 12 12 13 13 13 14 14
7 10 14 15 12 11 11 9 6 5 6 6 6 5 4 5 5 5 5 5 6 8 8 10 11 12 12 15 15 16 14 12 10 11 13 14 14 14
6 4 3 4 4 5 5 5 4 4 5 4 5 5 5 5 5 5 4 4 6 8 8 6 8 10 13 14 15 15 15 14 13 12 13 15 14 14
9 4 5 5 5 5 5 5 5 5 5 4 4 5 5 5 5 4 4 5 7 8 8 7 6 8 10 12 17 17 15 14 12 12 13 15 16 13
6 4 4 5 5 5 5 5 5 5 5 5 5 4 4 4 4 5 5 6 7 8 8 7 7 9 14 15 9 14 14 13 13 13 13 14 16 14
4 4 4 4 4 5 5 5 4 4 4 4 4 4 4 4 5 5 6 7 8 9 9 7 7 9 12 15 14 11 16 16 14 15 14 13 15 19
4 4 4 4 4 4 4 4 4 4 4 4 4 5 4 4 5 6 6 12 11 9 10 9 9 15 12 11 14 12 9 16 20 16 15 14 14 13
4 4 4 4 4 4 4 4 4 4 4 4 4 4 4 4 6 7 7 8 8 9 11 10 8 9 9 12 15 16 16 13 16 25 27 24 14 11
3 3 3 3 3 3 3 4 4 4 4 4 4 4 4 5 5 6 7 8 8 10 10 10 9 8 10 12 14 14 17 16 12 12 13 19 27 31
Wind_Direction
231 230 232 232 226 225 220 213 233 261 262 214 212 216 218 219 232 233 226 243 250 254 258 262 264 266 267 269 270 272 273 274 275 275 275 275 275 274
229 230 232 232 230 224 223 221 221 239 261 227 208 198 210 221 232 228 224 241 249 254 258 262 264 266 267 268 269 270 271 272 273 273 274 275 274 274
231 231 234 229 230 225 223 223 225 226 250 253 203 203 205 219 236 230 225 234 246 255 260 263 264 265 265 266 266 268 269 271 272 273 274 275 275 275
235 233 236 230 231 228 226 227 227 225 238 253 230 209 217 218 225 232 239 240 236 252 258 261 262 262 263 264 265 267 269 271 272 274 275 275 275 275
235 233 235 230 233 229 226 228 227 228 230 243 244 219 222 222 227 237 241 241 242 251 257 260 261 262 264 265 266 267 269 270 272 273 274 274 274 274
238 235 234 229 232 229 229 228 226 227 227 236 241 230 226 216 219 235 245 237 243 247 253 255 259 261 262 265 267 269 271 273 274 274 274 274 274 273
243 240 237 236 236 235 232 227 221 226 227 233 239 235 229 219 224 225 240 245 245 240 247 250 254 255 258 264 268 270 271 272 273 273 273 273 272 271
245 243 241 248 250 250 247 240 225 221 224 227 232 232 228 223 225 227 234 241 251 223 233 246 239 247 245 241 257 264 267 269 271 272 272 272 272 271
240 241 242 239 245 240 249 253 249 240 229 221 229 229 225 220 220 229 232 234 242 232 231 257 246 252 248 254 263 266 269 271 272 273 273 272 272 270
239 235 237 237 234 235 231 236 240 245 244 236 228 228 226 221 216 226 234 243 250 246 235 257 255 256 257 250 263 268 271 272 273 273 273 272 272 271
245 237 239 238 244 248 240 232 236 239 247 245 243 239 232 229 223 224 229 237 250 245 220 238 256 264 263 260 261 268 270 272 273 273 273 273 273 272
252 243 251 252 248 251 242 231 235 233 225 239 248 253 251 248 244 232 225 239 253 258 223 221 246 262 274 251 246 253 261 267 270 272 272 272 272 271
257 245 242 258 259 253 245 231 236 232 215 221 228 233 236 237 240 235 223 228 243 250 218 206 247 255 265 276 264 254 253 258 262 265 268 269 269 267
256 247 244 256 258 257 252 243 240 239 223 217 221 225 227 228 227 225 227 227 233 245 244 228 249 259 271 277 280 267 247 252 258 262 259 263 266 265
260 261 259 259 260 259 257 252 245 234 222 218 215 219 220 220 216 219 227 233 242 245 247 238 243 255 259 270 278 279 279 272 259 259 259 258 257 257
279 276 280 277 265 252 249 253 241 225 219 219 214 213 205 205 212 213 226 232 252 261 244 238 240 246 258 264 270 276 273 271 265 262 264 264 258 252
253 244 243 248 242 238 231 222 218 223 227 211 209 210 210 216 222 211 218 230 248 266 272 257 243 245 251 261 269 269 271 271 269 269 268 268 261 254
267 238 233 231 233 229 220 215 212 215 216 214 212 210 213 218 229 225 224 236 254 263 266 267 268 274 269 255 246 263 266 269 270 267 267 271 271 261
267 241 236 230 227 220 213 209 211 211 205 207 210 210 213 220 230 239 242 248 257 262 264 262 261 271 280 283 256 244 262 271 273 271 267 266 271 269
245 235 234 227 218 212 208 207 208 206 204 208 209 210 213 222 236 245 249 252 262 268 271 263 254 258 268 280 285 271 261 265 270 272 272 270 267 269
240 229 225 219 214 208 205 205 206 209 207 205 211 215 217 225 242 249 254 264 270 271 273 273 264 274 277 278 278 276 262 262 266 269 273 273 273 270
236 227 220 212 208 204 203 203 207 210 208 212 218 221 223 231 246 253 257 263 267 269 273 277 275 276 272 273 278 284 287 280 272 272 267 260 259 260
232 221 215 209 205 200 200 203 206 212 212 215 222 228 232 244 251 256 260 264 271 275 278 283 281 273 271 273 278 282 286 290 289 283 272 263 258 256